StationID,Date,MaxTemp,MinTemp,Precipitation,Snowfall,SnowDepth
"CA001076886","1973-05-01",,,,0.00,
"CA001076886","1973-05-02",,,,0.00,
"CA001076886","1973-05-03",,,,0.00,
"CA001076886","1973-05-04",,,,0.00,
"CA001076886","1973-05-05",,,,0.00,
"CA001076886","1973-05-06",,,,0.00,
"CA001076886","1973-05-07",,,,0.00,
"CA001076886","1973-05-08",,,,0.00,
"CA001076886","1973-05-09",,,,0.00,
"CA001076886","1973-05-10",55.04,41.00,0.00,0.00,
"CA001076886","1973-05-11",62.06,30.92,0.00,0.00,
"CA001076886","1973-05-12",51.98,39.92,23.00,0.00,
"CA001076886","1973-05-13",75.02,33.08,0.00,0.00,
"CA001076886","1973-05-14",80.06,35.96,0.00,0.00,
"CA001076886","1973-05-15",62.06,39.92,69.00,0.00,
"CA001076886","1973-05-16",66.02,39.92,23.00,0.00,
"CA001076886","1973-05-17",60.08,44.06,0.00,0.00,
"CA001076886","1973-05-18",64.04,39.02,64.00,0.00,
"CA001076886","1973-05-19",55.04,39.02,0.00,0.00,
"CA001076886","1973-05-20",57.02,28.04,0.00,0.00,
"CA001076886","1973-05-21",48.02,41.00,38.00,0.00,
"CA001076886","1973-05-22",53.96,39.02,0.00,0.00,
"CA001076886","1973-05-23",51.98,39.02,53.00,0.00,
"CA001076886","1973-05-24",62.06,37.94,5.00,0.00,
"CA001076886","1973-05-25",57.02,37.94,0.00,0.00,
"CA001076886","1973-05-26",60.98,30.92,0.00,0.00,
"CA001076886","1973-05-27",64.94,30.02,3.00,0.00,
"CA001076886","1973-05-28",66.02,42.98,0.00,0.00,
"CA001076886","1973-05-29",55.94,35.06,46.00,0.00,
"CA001076886","1973-05-30",55.04,41.00,0.00,0.00,
"CA001076886","1973-05-31",59.00,37.04,0.00,0.00,
"CA001076886","1973-06-01",64.04,35.06,0.00,0.00,
"CA001076886","1973-06-02",64.94,46.04,0.00,0.00,
"CA001076886","1973-06-03",62.96,30.92,0.00,0.00,
"CA001076886","1973-06-04",62.96,44.06,0.00,0.00,
"CA001076886","1973-06-05",60.08,42.98,30.00,0.00,
"CA001076886","1973-06-06",60.08,50.00,10.00,0.00,
"CA001076886","1973-06-07",55.04,44.06,58.00,0.00,
"CA001076886","1973-06-08",55.94,42.98,56.00,0.00,
"CA001076886","1973-06-09",57.92,39.02,30.00,0.00,
"CA001076886","1973-06-10",60.98,42.98,0.00,0.00,
"CA001076886","1973-06-11",68.00,32.00,53.00,0.00,
"CA001076886","1973-06-12",59.00,46.94,147.00,0.00,
"CA001076886","1973-06-13",62.96,46.04,0.00,0.00,
"CA001076886","1973-06-14",69.08,39.02,0.00,0.00,
"CA001076886","1973-06-15",64.94,48.02,0.00,0.00,
"CA001076886","1973-06-16",71.96,37.94,3.00,0.00,
"CA001076886","1973-06-17",66.92,41.00,0.00,0.00,
"CA001076886","1973-06-18",64.94,44.06,0.00,0.00,
"CA001076886","1973-06-19",64.94,44.96,5.00,0.00,
"CA001076886","1973-06-20",64.94,35.96,0.00,0.00,
"CA001076886","1973-06-21",68.00,37.94,25.00,0.00,
"CA001076886","1973-06-22",75.02,42.98,0.00,0.00,
"CA001076886","1973-06-23",68.00,46.94,3.00,0.00,
"CA001076886","1973-06-24",62.06,48.02,114.00,0.00,
"CA001076886","1973-06-25",62.96,48.92,13.00,0.00,
"CA001076886","1973-06-26",68.00,44.96,15.00,0.00,
"CA001076886","1973-06-27",62.96,50.00,5.00,0.00,
"CA001076886","1973-06-28",57.92,44.96,18.00,0.00,
"CA001076886","1973-06-29",57.92,44.96,0.00,0.00,
"CA001076886","1973-06-30",60.98,46.94,0.00,0.00,
"CA001076886","1973-07-01",60.08,50.00,8.00,0.00,
"CA001076886","1973-07-02",60.98,46.04,8.00,0.00,
"CA001076886","1973-07-03",62.96,51.98,5.00,0.00,
"CA001076886","1973-07-04",62.06,51.08,10.00,0.00,
"CA001076886","1973-07-05",60.98,44.96,25.00,0.00,
"CA001076886","1973-07-06",66.92,42.08,0.00,0.00,
"CA001076886","1973-07-07",64.94,37.94,0.00,0.00,
"CA001076886","1973-07-08",73.04,39.92,0.00,0.00,
"CA001076886","1973-07-09",69.98,50.00,25.00,0.00,
"CA001076886","1973-07-10",64.94,46.94,46.00,0.00,
"CA001076886","1973-07-11",60.98,48.02,0.00,0.00,
"CA001076886","1973-07-12",62.06,48.02,0.00,0.00,
"CA001076886","1973-07-13",71.96,53.06,0.00,0.00,
"CA001076886","1973-07-14",73.04,51.98,0.00,0.00,
"CA001076886","1973-07-15",73.04,51.08,0.00,0.00,
"CA001076886","1973-07-16",78.98,44.06,0.00,0.00,
"CA001076886","1973-07-17",82.04,42.08,0.00,0.00,
"CA001076886","1973-07-18",84.02,46.94,0.00,0.00,
"CA001076886","1973-07-19",82.94,44.96,15.00,0.00,
"CA001076886","1973-07-20",64.94,53.06,30.00,0.00,
"CA001076886","1973-07-21",64.94,44.96,0.00,0.00,
"CA001076886","1973-07-22",73.04,37.04,13.00,0.00,
"CA001076886","1973-07-23",55.94,50.00,76.00,0.00,
"CA001076886","1973-07-24",57.02,46.94,25.00,0.00,
"CA001076886","1973-07-25",60.98,48.02,0.00,0.00,
"CA001076886","1973-07-26",69.98,53.96,0.00,0.00,
"CA001076886","1973-07-27",77.00,46.04,0.00,0.00,
"CA001076886","1973-07-28",75.02,46.94,0.00,0.00,
"CA001076886","1973-07-29",75.92,53.96,0.00,0.00,
"CA001076886","1973-07-30",71.96,51.98,0.00,0.00,
"CA001076886","1973-07-31",75.92,53.96,0.00,0.00,
"CA001076886","1973-08-01",77.00,42.08,0.00,0.00,
"CA001076886","1973-08-02",75.92,53.96,0.00,0.00,
"CA001076886","1973-08-03",68.00,53.06,0.00,0.00,
"CA001076886","1973-08-04",64.94,51.98,13.00,0.00,
"CA001076886","1973-08-05",78.08,39.92,0.00,0.00,
"CA001076886","1973-08-06",82.04,39.92,0.00,0.00,
"CA001076886","1973-08-07",82.94,48.02,0.00,0.00,
"CA001076886","1973-08-08",82.04,53.06,0.00,0.00,
"CA001076886","1973-08-09",73.04,53.06,0.00,0.00,
"CA001076886","1973-08-10",75.92,39.02,0.00,0.00,
"CA001076886","1973-08-11",77.00,41.00,0.00,0.00,
"CA001076886","1973-08-12",78.98,51.98,0.00,0.00,
"CA001076886","1973-08-13",71.96,42.08,30.00,0.00,
"CA001076886","1973-08-14",71.96,51.08,15.00,0.00,
"CA001076886","1973-08-15",64.04,39.02,0.00,0.00,
"CA001076886","1973-08-16",55.94,46.94,36.00,0.00,
"CA001076886","1973-08-17",60.98,44.06,25.00,0.00,
"CA001076886","1973-08-18",69.08,39.92,0.00,0.00,
"CA001076886","1973-08-19",73.94,30.92,0.00,0.00,
"CA001076886","1973-08-20",71.06,37.04,0.00,0.00,
"CA001076886","1973-08-21",68.00,53.96,0.00,0.00,
"CA001076886","1973-08-22",73.94,42.08,0.00,0.00,
"CA001076886","1973-08-23",71.06,50.00,0.00,0.00,
"CA001076886","1973-08-24",71.06,46.04,0.00,0.00,
"CA001076886","1973-08-25",60.98,51.08,46.00,0.00,
"CA001076886","1973-08-26",57.92,48.02,33.00,0.00,
"CA001076886","1973-08-27",55.04,37.94,28.00,0.00,
"CA001076886","1973-08-28",59.00,48.02,94.00,0.00,
"CA001076886","1973-08-29",57.02,46.94,15.00,0.00,
"CA001076886","1973-08-30",62.06,44.06,0.00,0.00,
"CA001076886","1973-08-31",68.00,30.02,20.00,0.00,
"CA001076886","1973-09-01",53.06,48.02,254.00,0.00,
"CA001076886","1973-09-02",62.96,48.92,18.00,0.00,
"CA001076886","1973-09-03",55.04,48.02,10.00,0.00,
"CA001076886","1973-09-04",57.02,50.00,130.00,0.00,
"CA001076886","1973-09-05",64.04,53.96,262.00,0.00,
"CA001076886","1973-09-06",64.04,51.98,109.00,0.00,
"CA001076886","1973-09-07",55.94,44.96,38.00,0.00,
"CA001076886","1973-09-08",51.08,46.94,89.00,0.00,
"CA001076886","1973-09-09",55.94,44.06,58.00,0.00,
"CA001076886","1973-09-10",53.06,46.04,84.00,0.00,
"CA001076886","1973-09-11",62.06,48.92,56.00,0.00,
"CA001076886","1973-09-12",68.00,39.92,0.00,0.00,
"CA001076886","1973-09-13",66.92,41.00,0.00,0.00,
"CA001076886","1973-09-14",68.00,30.02,0.00,0.00,
"CA001076886","1973-09-15",64.04,28.94,0.00,0.00,
"CA001076886","1973-09-16",71.06,28.94,0.00,0.00,
"CA001076886","1973-09-17",73.04,32.00,0.00,0.00,
"CA001076886","1973-09-18",59.00,35.96,0.00,0.00,
"CA001076886","1973-09-19",66.02,37.94,0.00,0.00,
"CA001076886","1973-09-20",57.92,42.98,23.00,0.00,
"CA001076886","1973-09-21",57.92,50.00,13.00,0.00,
"CA001076886","1973-09-22",60.08,48.92,71.00,0.00,
"CA001076886","1973-09-23",60.08,46.04,8.00,0.00,
"CA001076886","1973-09-24",60.08,42.08,0.00,0.00,
"CA001076886","1973-09-25",48.02,28.04,114.00,0.00,
"CA001076886","1973-09-26",57.92,42.08,48.00,0.00,
"CA001076886","1973-09-27",57.02,48.02,5.00,0.00,
"CA001076886","1973-09-28",57.02,46.94,56.00,0.00,
"CA001076886","1973-09-29",53.06,42.08,3.00,0.00,
"CA001076886","1973-09-30",50.00,37.94,0.00,0.00,
"CA001076886","1973-10-01",48.92,30.92,0.00,0.00,
"CA001076886","1973-10-02",51.98,42.08,168.00,0.00,
"CA001076886","1973-10-03",55.04,37.94,0.00,0.00,
"CA001076886","1973-10-04",44.06,39.92,33.00,0.00,
"CA001076886","1973-10-05",48.92,37.94,0.00,0.00,
"CA001076886","1973-10-06",48.02,33.08,0.00,0.00,
"CA001076886","1973-10-07",42.98,24.08,0.00,0.00,
"CA001076886","1973-10-08",46.94,35.96,0.00,0.00,
"CA001076886","1973-10-09",46.04,42.08,74.00,0.00,
"CA001076886","1973-10-10",48.02,39.92,8.00,0.00,
"CA001076886","1973-10-11",46.04,42.08,43.00,0.00,
"CA001076886","1973-10-12",48.92,39.02,30.00,0.00,
"CA001076886","1973-10-13",42.98,35.96,5.00,0.00,
"CA001076886","1973-10-14",48.92,37.04,0.00,0.00,
"CA001076886","1973-10-15",42.98,26.96,58.00,0.00,
"CA001076886","1973-10-16",42.98,35.06,15.00,0.00,
"CA001076886","1973-10-17",39.92,32.00,188.00,0.00,
"CA001076886","1973-10-18",46.94,35.06,23.00,0.00,
"CA001076886","1973-10-19",42.08,37.94,13.00,0.00,
"CA001076886","1973-10-20",48.02,33.08,28.00,0.00,
"CA001076886","1973-10-21",44.96,32.00,13.00,0.00,
"CA001076886","1973-10-22",41.00,32.00,119.00,0.00,
"CA001076886","1973-10-23",41.00,33.08,56.00,0.00,
"CA001076886","1973-10-24",44.96,30.92,36.00,0.00,
"CA001076886","1973-10-25",46.04,35.06,48.00,0.00,
"CA001076886","1973-10-26",48.02,37.94,180.00,0.00,
"CA001076886","1973-10-27",51.98,35.96,18.00,0.00,
"CA001076886","1973-10-28",48.02,39.92,28.00,0.00,
"CA001076886","1973-10-29",41.00,33.98,318.00,0.00,
"CA001076886","1973-10-30",39.92,32.00,0.00,0.00,
"CA001076886","1973-10-31",42.08,28.04,0.00,0.00,
"CA001076886","1973-11-01",41.00,21.02,0.00,0.00,
"CA001076886","1973-11-02",35.06,26.96,0.00,0.00,
"CA001076886","1973-11-03",24.08,14.00,0.00,0.00,
"CA001076886","1973-11-04",24.08,8.06,0.00,0.00,
"CA001076886","1973-11-05",23.00,15.98,0.00,0.00,
"CA001076886","1973-11-06",24.08,15.98,0.00,0.00,
"CA001076886","1973-11-07",26.06,6.08,0.00,0.00,
"CA001076886","1973-11-08",24.98,6.08,0.00,0.00,
"CA001076886","1973-11-09",24.08,-0.94,0.00,0.00,
"CA001076886","1973-11-10",21.92,1.04,0.00,0.00,
"CA001076886","1973-11-11",21.92,3.02,,,
"CA001076886","1973-11-12",28.94,17.96,,,
"CA001076886","1973-11-13",33.98,15.08,0.00,0.00,
"CA001076886","1973-11-14",28.94,8.96,0.00,0.00,
"CA001076886","1973-11-15",33.08,19.04,0.00,0.00,
"CA001076886","1973-11-16",28.94,8.06,0.00,0.00,
"CA001076886","1973-11-17",21.02,1.94,0.00,0.00,
"CA001076886","1973-11-18",24.08,1.04,0.00,0.00,
"CA001076886","1973-11-19",19.04,1.94,127.00,127.00,
"CA001076886","1973-11-20",26.06,6.08,0.00,0.00,
"CA001076886","1973-11-21",21.92,6.98,0.00,0.00,
"CA001076886","1973-11-22",21.02,5.00,76.00,76.00,
"CA001076886","1973-11-23",26.06,15.98,71.00,71.00,
"CA001076886","1973-11-24",33.98,15.98,64.00,0.00,
"CA001076886","1973-11-25",35.06,30.92,41.00,8.00,
"CA001076886","1973-11-26",30.92,26.96,66.00,66.00,
"CA001076886","1973-11-27",32.00,30.02,56.00,56.00,
"CA001076886","1973-11-28",35.06,30.92,46.00,0.00,
"CA001076886","1973-11-29",33.08,24.08,0.00,0.00,
"CA001076886","1973-11-30",30.02,14.00,0.00,0.00,
"CA001076886","1973-12-01",21.92,10.94,25.00,25.00,
"CA001076886","1973-12-02",26.06,19.04,163.00,163.00,
"CA001076886","1973-12-03",35.96,21.02,0.00,0.00,
"CA001076886","1973-12-04",37.04,32.00,8.00,0.00,
"CA001076886","1973-12-05",37.94,32.00,25.00,0.00,
"CA001076886","1973-12-06",41.00,33.08,0.00,0.00,
"CA001076886","1973-12-07",35.96,33.98,0.00,0.00,
"CA001076886","1973-12-08",37.94,30.92,64.00,13.00,
"CA001076886","1973-12-09",37.94,30.92,33.00,10.00,
"CA001076886","1973-12-10",35.96,32.00,10.00,0.00,
"CA001076886","1973-12-11",33.98,26.96,18.00,18.00,
"CA001076886","1973-12-12",35.06,30.92,51.00,0.00,
"CA001076886","1973-12-13",33.98,26.96,91.00,91.00,
"CA001076886","1973-12-14",35.06,26.96,33.00,0.00,
"CA001076886","1973-12-15",35.06,30.02,279.00,279.00,
"CA001076886","1973-12-16",35.96,28.94,28.00,0.00,
"CA001076886","1973-12-17",28.04,12.02,0.00,0.00,
"CA001076886","1973-12-18",21.92,8.96,3.00,3.00,
"CA001076886","1973-12-19",26.06,12.02,46.00,46.00,
"CA001076886","1973-12-20",30.02,21.92,0.00,0.00,
"CA001076886","1973-12-21",32.00,21.92,0.00,0.00,
"CA001076886","1973-12-22",28.94,26.06,0.00,0.00,
"CA001076886","1973-12-23",30.92,21.92,66.00,66.00,
"CA001076886","1973-12-24",35.96,24.98,0.00,0.00,
"CA001076886","1973-12-25",32.00,28.94,0.00,0.00,
"CA001076886","1973-12-26",35.06,24.98,0.00,0.00,
"CA001076886","1973-12-27",26.06,6.98,0.00,0.00,
"CA001076886","1973-12-28",19.94,-0.04,0.00,0.00,
"CA001076886","1973-12-29",21.92,6.08,0.00,0.00,
"CA001076886","1973-12-30",19.04,3.92,0.00,0.00,
"CA001076886","1973-12-31",17.96,-2.02,0.00,0.00,
"CA001076886","1974-01-01",19.94,-2.92,0.00,0.00,
"CA001076886","1974-01-02",21.02,1.94,0.00,0.00,
"CA001076886","1974-01-03",10.94,-2.02,0.00,0.00,
"CA001076886","1974-01-04",19.94,-2.02,0.00,0.00,
"CA001076886","1974-01-05",14.00,-0.94,0.00,0.00,
"CA001076886","1974-01-06",19.94,-0.94,0.00,0.00,
"CA001076886","1974-01-07",15.08,-4.00,0.00,0.00,
"CA001076886","1974-01-08",21.02,-0.04,0.00,0.00,
"CA001076886","1974-01-09",15.08,-5.98,0.00,0.00,
"CA001076886","1974-01-10",14.00,-7.06,0.00,0.00,
"CA001076886","1974-01-11",6.98,1.04,76.00,76.00,
"CA001076886","1974-01-12",10.04,6.08,30.00,30.00,
"CA001076886","1974-01-13",8.06,-4.00,41.00,41.00,
"CA001076886","1974-01-14",3.02,-5.08,36.00,36.00,
"CA001076886","1974-01-15",8.06,-9.94,0.00,0.00,
"CA001076886","1974-01-16",3.02,-20.02,71.00,71.00,
"CA001076886","1974-01-17",10.94,-9.94,325.00,325.00,
"CA001076886","1974-01-18",30.02,3.02,157.00,157.00,
"CA001076886","1974-01-19",35.96,17.96,0.00,0.00,
"CA001076886","1974-01-20",30.92,19.94,142.00,142.00,
"CA001076886","1974-01-21",35.06,24.98,254.00,254.00,
"CA001076886","1974-01-22",33.98,24.08,25.00,10.00,
"CA001076886","1974-01-23",39.92,28.94,36.00,0.00,
"CA001076886","1974-01-24",39.92,33.98,5.00,0.00,
"CA001076886","1974-01-25",37.04,30.92,3.00,0.00,
"CA001076886","1974-01-26",35.96,30.02,36.00,20.00,
"CA001076886","1974-01-27",35.96,32.00,66.00,15.00,
"CA001076886","1974-01-28",30.92,24.98,102.00,102.00,
"CA001076886","1974-01-29",12.02,3.02,0.00,0.00,
"CA001076886","1974-01-30",6.98,1.04,0.00,0.00,
"CA001076886","1974-01-31",6.98,-0.04,25.00,25.00,
"CA001076886","1974-02-01",8.96,-9.94,117.00,117.00,
"CA001076886","1974-02-02",23.00,6.98,25.00,25.00,
"CA001076886","1974-02-03",28.04,12.92,20.00,20.00,
"CA001076886","1974-02-04",37.04,12.02,5.00,5.00,
"CA001076886","1974-02-05",33.98,19.04,13.00,13.00,
"CA001076886","1974-02-06",37.04,32.00,33.00,0.00,
"CA001076886","1974-02-07",41.00,35.06,0.00,0.00,
"CA001076886","1974-02-08",42.08,35.06,23.00,0.00,
"CA001076886","1974-02-09",39.02,33.98,3.00,0.00,
"CA001076886","1974-02-10",39.02,35.06,5.00,0.00,
"CA001076886","1974-02-11",41.00,28.94,0.00,0.00,
"CA001076886","1974-02-12",35.96,26.96,25.00,25.00,
"CA001076886","1974-02-13",33.98,30.02,61.00,51.00,
"CA001076886","1974-02-14",37.04,33.08,13.00,0.00,
"CA001076886","1974-02-15",39.92,33.98,15.00,0.00,
"CA001076886","1974-02-16",41.00,28.94,15.00,15.00,
"CA001076886","1974-02-17",37.04,28.04,69.00,51.00,
"CA001076886","1974-02-18",37.04,32.00,43.00,0.00,
"CA001076886","1974-02-19",39.92,32.00,0.00,0.00,
"CA001076886","1974-02-20",44.06,33.08,13.00,0.00,
"CA001076886","1974-02-21",41.00,28.04,0.00,0.00,
"CA001076886","1974-02-22",42.08,28.04,0.00,0.00,
"CA001076886","1974-02-23",37.04,28.94,124.00,114.00,
"CA001076886","1974-02-24",35.96,30.02,74.00,25.00,
"CA001076886","1974-02-25",41.00,28.04,0.00,0.00,
"CA001076886","1974-02-26",35.96,15.08,0.00,0.00,
"CA001076886","1974-02-27",33.08,12.92,0.00,0.00,
"CA001076886","1974-02-28",35.96,15.08,15.00,15.00,
"CA001076886","1974-03-01",39.02,26.06,0.00,0.00,
"CA001076886","1974-03-02",30.92,12.92,36.00,36.00,
"CA001076886","1974-03-03",35.06,10.94,30.00,0.00,
"CA001076886","1974-03-04",41.00,26.96,46.00,46.00,
"CA001076886","1974-03-05",30.92,19.94,0.00,0.00,
"CA001076886","1974-03-06",28.04,5.00,0.00,0.00,
"CA001076886","1974-03-07",28.04,1.94,0.00,0.00,
"CA001076886","1974-03-08",19.04,-0.94,97.00,97.00,
"CA001076886","1974-03-09",35.96,15.08,142.00,142.00,
"CA001076886","1974-03-10",46.04,24.98,25.00,25.00,
"CA001076886","1974-03-11",44.96,19.94,8.00,8.00,
"CA001076886","1974-03-12",44.96,26.06,25.00,0.00,
"CA001076886","1974-03-13",42.08,23.00,0.00,0.00,
"CA001076886","1974-03-14",39.92,26.96,0.00,0.00,
"CA001076886","1974-03-15",30.02,17.96,102.00,102.00,
"CA001076886","1974-03-16",35.96,24.98,38.00,38.00,
"CA001076886","1974-03-17",44.96,30.92,5.00,0.00,
"CA001076886","1974-03-18",48.92,30.92,0.00,0.00,
"CA001076886","1974-03-19",48.02,19.04,0.00,0.00,
"CA001076886","1974-03-20",50.00,28.94,0.00,0.00,
"CA001076886","1974-03-21",53.96,26.96,0.00,0.00,
"CA001076886","1974-03-22",53.96,21.92,0.00,0.00,
"CA001076886","1974-03-23",50.00,26.06,0.00,0.00,
"CA001076886","1974-03-24",51.08,28.04,0.00,0.00,
"CA001076886","1974-03-25",48.02,26.06,20.00,15.00,
"CA001076886","1974-03-26",41.00,32.00,25.00,10.00,
"CA001076886","1974-03-27",44.06,32.00,13.00,0.00,
"CA001076886","1974-03-28",44.96,26.96,25.00,0.00,
"CA001076886","1974-03-29",51.08,35.96,5.00,0.00,
"CA001076886","1974-03-30",51.08,30.92,0.00,0.00,
"CA001076886","1974-03-31",48.02,35.96,0.00,0.00,
"CA001076886","1974-04-01",57.02,21.92,8.00,0.00,
"CA001076886","1974-04-02",53.06,30.92,10.00,0.00,
"CA001076886","1974-04-03",42.98,39.02,38.00,0.00,
"CA001076886","1974-04-04",48.02,28.04,0.00,0.00,
"CA001076886","1974-04-05",42.98,28.94,71.00,0.00,
"CA001076886","1974-04-06",46.04,33.08,0.00,0.00,
"CA001076886","1974-04-07",48.92,35.06,0.00,0.00,
"CA001076886","1974-04-08",41.00,26.06,10.00,0.00,
"CA001076886","1974-04-09",46.94,32.00,0.00,0.00,
"CA001076886","1974-04-10",48.92,37.04,8.00,0.00,
"CA001076886","1974-04-11",50.00,37.94,10.00,0.00,
"CA001076886","1974-04-12",51.98,35.06,0.00,0.00,
"CA001076886","1974-04-13",55.94,26.06,0.00,0.00,
"CA001076886","1974-04-14",46.04,30.92,0.00,0.00,
"CA001076886","1974-04-15",55.94,32.00,0.00,0.00,
"CA001076886","1974-04-16",50.00,37.04,0.00,0.00,
"CA001076886","1974-04-17",46.94,37.94,0.00,0.00,
"CA001076886","1974-04-18",46.04,37.04,8.00,0.00,
"CA001076886","1974-04-19",46.04,35.06,0.00,0.00,
"CA001076886","1974-04-20",46.94,35.96,41.00,0.00,
"CA001076886","1974-04-21",44.96,35.06,33.00,0.00,
"CA001076886","1974-04-22",51.08,35.06,0.00,0.00,
"CA001076886","1974-04-23",59.00,24.98,0.00,0.00,
"CA001076886","1974-04-24",69.98,28.04,0.00,0.00,
"CA001076886","1974-04-25",62.06,28.94,0.00,0.00,
"CA001076886","1974-04-26",53.06,35.06,8.00,0.00,
"CA001076886","1974-04-27",51.08,39.92,0.00,0.00,
"CA001076886","1974-04-28",62.06,37.04,0.00,0.00,
"CA001076886","1974-04-29",50.00,42.98,58.00,0.00,
"CA001076886","1974-04-30",48.92,42.08,0.00,0.00,
"CA001076886","1974-05-01",53.06,28.04,0.00,0.00,
"CA001076886","1974-05-02",50.00,33.98,0.00,0.00,
"CA001076886","1974-05-03",46.04,39.92,0.00,0.00,
"CA001076886","1974-05-04",50.00,42.08,15.00,0.00,
"CA001076886","1974-05-05",53.06,42.08,8.00,0.00,
"CA001076886","1974-05-06",53.06,39.92,0.00,0.00,
"CA001076886","1974-05-07",55.04,39.92,10.00,0.00,
"CA001076886","1974-05-08",53.06,39.02,0.00,0.00,
"CA001076886","1974-05-09",55.94,39.02,10.00,0.00,
"CA001076886","1974-05-10",53.96,37.94,0.00,0.00,
"CA001076886","1974-05-11",55.94,32.00,0.00,0.00,
"CA001076886","1974-05-12",57.92,28.04,0.00,0.00,
"CA001076886","1974-05-13",50.00,39.02,10.00,0.00,
"CA001076886","1974-05-14",48.02,35.96,102.00,0.00,
"CA001076886","1974-05-15",55.94,35.96,5.00,0.00,
"CA001076886","1974-05-16",64.94,39.92,0.00,0.00,
"CA001076886","1974-05-17",68.00,32.00,0.00,0.00,
"CA001076886","1974-05-18",69.98,30.92,0.00,0.00,
"CA001076886","1974-05-19",59.00,33.98,3.00,0.00,
"CA001076886","1974-05-20",59.00,42.08,0.00,0.00,
"CA001076886","1974-05-21",64.94,33.08,0.00,0.00,
"CA001076886","1974-05-22",55.94,44.96,53.00,0.00,
"CA001076886","1974-05-23",59.00,32.00,0.00,0.00,
"CA001076886","1974-05-24",60.08,39.92,38.00,0.00,
"CA001076886","1974-05-25",55.94,42.98,0.00,0.00,
"CA001076886","1974-05-26",57.92,41.00,0.00,0.00,
"CA001076886","1974-05-27",60.08,44.06,0.00,0.00,
"CA001076886","1974-05-28",64.94,41.00,0.00,0.00,
"CA001076886","1974-05-29",59.00,33.98,8.00,0.00,
"CA001076886","1974-05-30",66.92,35.06,0.00,0.00,
"CA001076886","1974-05-31",59.00,41.00,3.00,0.00,
"CA001076886","1974-06-01",51.08,44.06,38.00,0.00,
"CA001076886","1974-06-02",55.04,44.96,0.00,0.00,
"CA001076886","1974-06-03",62.96,42.98,0.00,0.00,
"CA001076886","1974-06-04",64.94,32.00,0.00,0.00,
"CA001076886","1974-06-05",57.92,42.08,5.00,0.00,
"CA001076886","1974-06-06",62.06,42.98,0.00,0.00,
"CA001076886","1974-06-07",62.96,35.96,3.00,0.00,
"CA001076886","1974-06-08",55.94,44.06,23.00,0.00,
"CA001076886","1974-06-09",60.08,42.98,41.00,0.00,
"CA001076886","1974-06-10",60.08,44.96,61.00,0.00,
"CA001076886","1974-06-11",60.08,44.96,0.00,0.00,
"CA001076886","1974-06-12",64.04,42.08,0.00,0.00,
"CA001076886","1974-06-13",75.02,32.00,0.00,0.00,
"CA001076886","1974-06-14",78.98,41.00,0.00,0.00,
"CA001076886","1974-06-15",64.94,55.04,0.00,0.00,
"CA001076886","1974-06-16",71.96,53.06,0.00,0.00,
"CA001076886","1974-06-17",69.08,41.00,0.00,0.00,
"CA001076886","1974-06-18",68.00,44.96,0.00,0.00,
"CA001076886","1974-06-19",69.08,35.06,30.00,0.00,
"CA001076886","1974-06-20",68.00,48.02,0.00,0.00,
"CA001076886","1974-06-21",66.02,39.92,48.00,0.00,
"CA001076886","1974-06-22",60.08,44.96,36.00,0.00,
"CA001076886","1974-06-23",62.96,42.98,0.00,0.00,
"CA001076886","1974-06-24",60.98,39.92,0.00,0.00,
"CA001076886","1974-06-25",71.96,33.98,0.00,0.00,
"CA001076886","1974-06-26",64.94,46.94,10.00,0.00,
"CA001076886","1974-06-27",60.98,46.94,0.00,0.00,
"CA001076886","1974-06-28",62.96,46.04,51.00,0.00,
"CA001076886","1974-06-29",59.00,46.04,89.00,0.00,
"CA001076886","1974-06-30",62.06,50.00,3.00,0.00,
"CA001076886","1974-07-01",53.06,48.02,46.00,0.00,
"CA001076886","1974-07-02",55.04,46.94,46.00,0.00,
"CA001076886","1974-07-03",62.96,48.02,104.00,0.00,
"CA001076886","1974-07-04",51.98,46.94,79.00,0.00,
"CA001076886","1974-07-05",59.00,46.94,0.00,0.00,
"CA001076886","1974-07-06",66.02,48.92,0.00,0.00,
"CA001076886","1974-07-07",77.00,41.00,0.00,0.00,
"CA001076886","1974-07-08",78.98,50.00,0.00,0.00,
"CA001076886","1974-07-09",80.06,51.08,109.00,0.00,
"CA001076886","1974-07-10",62.06,51.08,8.00,0.00,
"CA001076886","1974-07-11",62.06,48.02,61.00,0.00,
"CA001076886","1974-07-12",64.94,48.02,0.00,0.00,
"CA001076886","1974-07-13",71.96,46.94,0.00,0.00,
"CA001076886","1974-07-14",64.94,46.94,3.00,0.00,
"CA001076886","1974-07-15",62.06,46.94,0.00,0.00,
"CA001076886","1974-07-16",64.94,44.96,23.00,0.00,
"CA001076886","1974-07-17",69.98,44.06,0.00,0.00,
"CA001076886","1974-07-18",60.98,51.08,208.00,0.00,
"CA001076886","1974-07-19",62.06,50.00,10.00,0.00,
"CA001076886","1974-07-20",64.94,48.02,0.00,0.00,
"CA001076886","1974-07-21",73.94,37.94,69.00,0.00,
"CA001076886","1974-07-22",60.08,51.08,18.00,0.00,
"CA001076886","1974-07-23",59.00,51.08,33.00,0.00,
"CA001076886","1974-07-24",60.08,51.08,89.00,0.00,
"CA001076886","1974-07-25",59.00,46.04,5.00,0.00,
"CA001076886","1974-07-26",66.92,46.94,0.00,0.00,
"CA001076886","1974-07-27",75.02,37.04,0.00,0.00,
"CA001076886","1974-07-28",75.92,44.06,0.00,0.00,
"CA001076886","1974-07-29",77.00,42.98,0.00,0.00,
"CA001076886","1974-07-30",78.98,42.08,0.00,0.00,
"CA001076886","1974-07-31",84.02,42.98,0.00,0.00,
"CA001076886","1974-08-01",84.92,44.96,0.00,0.00,
"CA001076886","1974-08-02",78.98,50.00,0.00,0.00,
"CA001076886","1974-08-03",78.08,53.06,0.00,0.00,
"CA001076886","1974-08-04",66.02,53.06,0.00,0.00,
"CA001076886","1974-08-05",62.96,50.00,0.00,0.00,
"CA001076886","1974-08-06",66.92,50.00,0.00,0.00,
"CA001076886","1974-08-07",69.98,51.08,0.00,0.00,
"CA001076886","1974-08-08",77.00,51.98,0.00,0.00,
"CA001076886","1974-08-09",73.04,48.02,0.00,0.00,
"CA001076886","1974-08-10",73.04,46.94,0.00,0.00,